Temp
5 5 5 5 5 5 5 5 5 5 5 6 6 7 7 7 7 7 6 5 6 6 5 5 5 5 5 5 5 5 5 6 6 6 6 6 6 6 7 7 6 5 5 4 3 2 4
4 4 5 5 5 4 4 5 5 5 5 5 6 7 7 6 6 6 6 5 5 5 5 5 5 5 5 5 5 5 5 5 6 6 6 6 6 6 6 6 6 5 5 5 3 3 2
4 4 4 4 4 4 4 4 5 5 5 5 6 7 6 6 6 6 6 5 5 5 5 4 5 4 5 5 4 4 5 5 5 5 5 6 6 6 5 5 4 4 4 4 4 4 3
4 4 4 4 4 4 4 4 5 4 5 5 6 7 6 6 5 5 5 5 5 5 4 4 4 4 4 4 4 4 4 4 5 5 5 5 5 5 5 4 3 2 2 3 3 3 3
3 4 4 3 4 4 4 4 4 5 4 5 5 6 5 5 5 5 5 5 4 4 4 4 4 4 3 3 4 4 4 4 4 4 4 4 3 5 4 3 3 2 1 0 1 1 1
3 3 3 3 3 4 3 4 4 5 4 5 4 5 5 5 5 4 5 4 4 4 4 3 3 3 2 3 3 4 4 4 5 4 4 4 4 4 2 2 1 0 0 -0 -0 0 -1
2 3 3 3 3 3 3 4 4 4 4 4 4 4 5 4 4 4 5 4 4 4 4 3 3 3 2 2 3 3 4 4 5 5 5 5 5 4 1 1 -0 -1 -1 -2 -3 -3 -2
2 3 3 2 2 3 3 4 4 3 4 4 4 3 4 4 3 4 4 4 4 4 4 3 3 2 2 3 2 3 4 3 3 5 5 4 5 1 -1 -1 -1 -2 -2 -2 -2 -3 -2
2 2 2 2 2 2 3 3 3 3 3 4 3 3 3 3 3 4 4 4 4 4 4 2 2 2 2 3 2 3 3 3 4 4 4 5 1 -1 -0 -1 -0 -1 -2 -3 -4 -3 -4
2 2 2 2 2 2 2 3 3 3 3 3 3 2 3 3 3 3 4 4 3 3 3 2 2 2 2 2 2 3 3 3 3 3 2 2 -1 -1 -1 0 -0 -1 -2 -3 -4 -4 -4
1 1 1 1 2 2 2 2 2 2 3 3 3 2 2 2 3 3 3 3 3 3 0 1 1 1 1 2 1 1 2 2 2 2 2 -1 -2 -1 0 -1 -1 -2 -2 -3 -4 -4 -5
1 1 1 1 1 1 2 2 2 2 2 2 2 2 2 2 2 3 3 2 3 3 0 0 -0 -0 0 1 1 1 1 1 1 1 -0 -0 -1 -2 -2 -2 -2 -2 -3 -3 -4 -5 -4
0 1 1 1 1 1 1 2 2 1 2 2 2 1 1 2 2 3 2 2 2 2 0 -0 -0 0 0 0 0 -0 -0 0 0 -0 -1 -2 -2 -2 -3 -3 -3 -3 -3 -5 -4 -5 -4
0 1 1 1 1 1 1 1 1 2 2 1 1 1 1 1 2 2 2 2 2 1 0 0 -0 -0 -0 -0 -0 -0 -1 -1 -1 -1 -1 -3 -5 -3 -3 -3 -4 -4 -4 -5 -4 -5 -5
-0 1 1 0 0 0 1 1 1 1 2 1 0 1 1 1 1 2 2 1 2 2 1 1 -0 -1 -0 -0 -1 -1 -1 -1 -2 -1 -1 -3 -5 -5 -5 -5 -4 -5 -6 -6 -8 -8 -8
-2 0 0 0 -0 0 0 0 0 1 1 0 0 -0 0 1 1 1 1 1 1 2 1 0 0 -1 -0 -1 -1 -1 -1 -2 -2 -2 -2 -3 -5 -6 -6 -6 -6 -6 -6 -8 -8 -8 -7
-2 -0 0 -0 -0 0 -0 -0 0 0 -0 -0 -0 -1 -0 0 0 0 0 1 1 1 1 0 -0 -0 -1 -1 -1 -1 -1 -2 -2 -3 -3 -3 -4 -5 -6 -7 -7 -7 -7 -7 -8 -9 -8
-3 -1 -1 -1 -1 -0 -0 -0 -0 -0 -1 -1 -1 -1 -1 -0 -0 -0 -0 0 1 1 0 0 -1 -1 -1 -1 -2 -2 -2 -2 -2 -3 -3 -3 -4 -5 -6 -6 -7 -7 -8 -8 -8 -9 -10
-2 -1 -1 -1 -1 -1 -1 -1 -0 -1 -1 -1 -1 -1 -1 -0 -0 -0 -0 0 0 0 -0 -1 -1 -1 -1 -2 -2 -3 -3 -3 -3 -4 -4 -4 -5 -5 -7 -7 -7 -8 -8 -8 -9 -9 -10
-3 -2 -2 -1 -1 -1 -1 -1 -1 -1 -2 -2 -2 -2 -1 -1 -0 -0 0 0 0 -0 -1 -1 -1 -1 -2 -2 -2 -2 -3 -3 -4 -4 -5 -5 -5 -5 -5 -6 -6 -7 -7 -8 -9 -10 -9
-3 -2 -2 -2 -2 -2 -1 -1 -1 -1 -2 -2 -2 -2 -1 -1 -1 -1 -1 -1 -0 -0 -1 -1 -2 -2 -2 -2 -3 -3 -3 -4 -5 -5 -5 -6 -6 -6 -6 -6 -7 -6 -7 -8 -8 -8 -9
-4 -2 -2 -2 -2 -2 -2 -2 -2 -2 -2 -3 -2 -2 -1 -1 -1 -1 -1 -1 -1 -1 -1 -1 -2 -2 -2 -3 -3 -2 -3 -4 -5 -5 -6 -6 -7 -7 -6 -6 -7 -6 -6 -7 -7 -8 -9
-4 -3 -3 -3 -3 -2 -2 -2 -2 -2 -3 -3 -3 -2 -2 -1 -1 -1 -1 -1 -1 -2 -2 -2 -2 -2 -3 -3 -3 -4 -4 -5 -5 -5 -6 -7 -8 -8 -8 -7 -7 -6 -4 -5 -5 -6 -6
-5 -5 -3 -3 -3 -2 -2 -3 -3 -3 -3 -3 -3 -3 -2 -2 -2 -2 -2 -1 -2 -2 -2 -3 -3 -3 -4 -4 -4 -5 -5 -5 -5 -6 -7 -8 -8 -9 -9 -8 -9 -5 -6 -6 -5 -6 -6
-5 -4 -4 -3 -3 -3 -3 -3 -3 -3 -3 -4 -4 -4 -3 -2 -2 -2 -2 -2 -2 -2 -3 -3 -3 -4 -4 -4 -5 -5 -5 -5 -5 -6 -7 -7 -8 -9 -9 -10 -7 -4 -5 -6 -6 -5 -7
-6 -4 -4 -3 -3 -4 -4 -4 -4 -4 -4 -4 -4 -4 -4 -3 -2 -3 -2 -2 -2 -3 -4 -3 -4 -5 -5 -5 -6 -5 -5 -5 -6 -6 -6 -7 -9 -9 -10 -10 -9 -6 -6 -7 -7 -7 -6
-5 -4 -4 -4 -4 -4 -4 -4 -4 -4 -4 -4 -4 -4 -4 -3 -3 -3 -3 -2 -3 -3 -3 -4 -4 -5 -6 -6 -6 -6 -6 -6 -6 -7 -6 -7 -9 -9 -11 -11 -9 -5 -7 -8 -9 -7 -7
-5 -5 -5 -4 -5 -5 -4 -4 -4 -4 -4 -4 -4 -4 -4 -4 -3 -3 -3 -3 -3 -3 -4 -4 -5 -6 -6 -6 -6 -6 -7 -6 -6 -6 -6 -7 -7 -9 -11 -12 -10 -6 -6 -7 -7 -8 -8
-5 -5 -5 -5 -5 -5 -5 -5 -5 -4 -4 -4 -4 -4 -4 -4 -4 -4 -3 -3 -4 -4 -5 -5 -5 -5 -5 -6 -6 -7 -7 -7 -7 -7 -6 -8 -7 -8 -8 -7 -7 -8 -8 -8 -8 -9 -9
Height
3111 3113 3115 3117 3119 3123 3126 3128 3131 3134 3136 3140 3141 3142 3144 3146 3147 3151 3154 3157 3157 3158 3156 3156 3155 3155 3156 3155 3157 3159 3159 3159 3160 3161 3163 3164 3165 3166 3169 3171 3172 3175 3176 3176 3177 3178 3181
3107 3110 3112 3114 3116 3121 3123 3126 3128 3132 3135 3138 3140 3141 3142 3145 3147 3150 3153 3155 3156 3157 3157 3156 3156 3154 3156 3157 3158 3159 3158 3159 3159 3161 3162 3163 3164 3165 3167 3169 3171 3173 3175 3177 3177 3177 3178
3102 3106 3108 3110 3114 3118 3121 3123 3126 3130 3133 3136 3138 3138 3142 3143 3145 3148 3152 3153 3156 3155 3156 3154 3155 3155 3156 3158 3158 3159 3158 3158 3160 3160 3161 3161 3162 3164 3166 3167 3169 3170 3175 3176 3176 3177 3178
3098 3101 3104 3107 3110 3115 3118 3122 3124 3127 3130 3134 3134 3136 3141 3142 3145 3147 3150 3152 3154 3154 3155 3153 3156 3157 3157 3158 3160 3161 3160 3159 3160 3160 3161 3160 3160 3162 3163 3165 3168 3171 3173 3174 3174 3175 3175
3092 3097 3100 3104 3107 3111 3116 3118 3122 3125 3129 3132 3134 3133 3137 3141 3142 3145 3148 3150 3152 3153 3156 3154 3156 3159 3159 3159 3160 3161 3161 3160 3159 3159 3160 3159 3160 3161 3163 3165 3168 3170 3170 3172 3173 3173 3173
3087 3091 3096 3099 3105 3108 3111 3116 3120 3124 3126 3129 3132 3131 3134 3138 3141 3144 3146 3149 3152 3154 3156 3157 3158 3161 3161 3160 3161 3161 3161 3162 3161 3161 3162 3162 3162 3161 3164 3166 3168 3170 3170 3171 3172 3173 3171
3082 3086 3091 3095 3100 3105 3110 3113 3116 3120 3123 3127 3130 3131 3132 3136 3139 3142 3146 3148 3154 3156 3156 3158 3160 3160 3161 3161 3162 3162 3162 3162 3162 3161 3162 3162 3163 3160 3163 3166 3167 3169 3170 3170 3170 3170 3170
3077 3082 3086 3092 3095 3100 3105 3108 3113 3117 3121 3123 3127 3129 3130 3133 3138 3141 3144 3147 3150 3155 3155 3159 3161 3163 3163 3163 3164 3164 3163 3164 3163 3163 3162 3164 3161 3164 3166 3167 3169 3170 3169 3169 3169 3168 3169
3072 3078 3081 3088 3093 3096 3101 3105 3109 3113 3117 3122 3124 3128 3128 3131 3137 3141 3144 3147 3150 3152 3156 3159 3160 3163 3164 3165 3164 3165 3165 3164 3164 3163 3162 3162 3165 3167 3168 3168 3168 3168 3168 3167 3168 3166 3166
3067 3074 3078 3084 3088 3094 3099 3101 3107 3111 3116 3119 3121 3125 3125 3129 3137 3139 3143 3146 3150 3151 3155 3160 3161 3163 3164 3164 3165 3165 3165 3167 3165 3164 3163 3164 3165 3167 3167 3167 3166 3166 3166 3166 3165 3165 3166
3062 3067 3073 3080 3085 3090 3095 3098 3103 3106 3112 3117 3120 3123 3124 3128 3134 3138 3143 3145 3149 3153 3155 3160 3160 3160 3161 3164 3165 3165 3165 3165 3164 3163 3165 3167 3167 3166 3166 3166 3165 3167 3164 3163 3163 3163 3164
3056 3064 3070 3075 3081 3085 3091 3097 3100 3104 3108 3114 3118 3120 3124 3128 3132 3137 3141 3144 3149 3154 3154 3156 3157 3159 3162 3163 3164 3165 3165 3166 3165 3165 3165 3166 3167 3167 3166 3165 3165 3164 3163 3162 3162 3162 3165
3051 3058 3066 3073 3079 3082 3088 3093 3097 3101 3105 3112 3114 3120 3123 3126 3132 3135 3139 3144 3150 3149 3154 3155 3156 3158 3160 3162 3163 3164 3165 3165 3165 3165 3166 3167 3167 3167 3167 3165 3165 3164 3161 3162 3164 3164 3166
3046 3054 3061 3068 3074 3079 3084 3089 3093 3097 3102 3108 3114 3117 3121 3125 3129 3133 3138 3143 3146 3146 3148 3151 3153 3156 3159 3161 3162 3163 3164 3165 3165 3165 3165 3166 3167 3168 3168 3166 3164 3163 3162 3162 3162 3166 3168
3040 3048 3057 3063 3070 3076 3081 3085 3089 3094 3099 3106 3110 3115 3119 3123 3126 3131 3136 3139 3141 3144 3146 3148 3151 3155 3158 3159 3162 3163 3164 3164 3164 3164 3166 3166 3167 3166 3166 3165 3165 3164 3164 3166 3166 3169 3169
3034 3043 3051 3059 3066 3072 3077 3082 3086 3091 3095 3101 3107 3113 3118 3121 3124 3129 3134 3135 3139 3142 3144 3146 3149 3152 3154 3158 3161 3161 3162 3164 3164 3164 3164 3165 3166 3166 3165 3165 3165 3165 3165 3165 3166 3167 3166
3029 3038 3047 3054 3062 3068 3073 3079 3084 3088 3093 3098 3104 3110 3115 3119 3123 3127 3129 3132 3136 3140 3143 3146 3148 3149 3152 3155 3158 3159 3161 3162 3162 3163 3163 3163 3165 3167 3164 3164 3164 3164 3164 3164 3165 3166 3166
3024 3034 3042 3050 3057 3064 3069 3075 3081 3085 3089 3096 3101 3107 3111 3115 3120 3122 3127 3130 3134 3137 3141 3143 3146 3148 3149 3152 3156 3158 3159 3160 3161 3162 3162 3162 3164 3164 3164 3162 3162 3162 3162 3163 3163 3165 3165
3020 3029 3038 3045 3052 3059 3065 3072 3077 3082 3086 3092 3097 3104 3108 3112 3115 3118 3123 3127 3130 3134 3138 3141 3143 3145 3147 3150 3155 3154 3156 3158 3159 3160 3160 3160 3161 3162 3161 3164 3161 3159 3159 3159 3161 3161 3160
3016 3025 3033 3041 3048 3055 3061 3068 3073 3078 3083 3089 3096 3100 3104 3108 3110 3116 3120 3124 3127 3131 3134 3137 3140 3142 3144 3147 3150 3151 3153 3155 3156 3157 3158 3158 3157 3158 3159 3158 3158 3156 3156 3156 3155 3156 3153
3012 3021 3028 3036 3044 3052 3058 3064 3070 3074 3079 3086 3091 3095 3099 3101 3106 3112 3117 3121 3124 3128 3131 3134 3137 3139 3141 3145 3147 3148 3150 3151 3152 3154 3155 3155 3153 3154 3155 3154 3153 3151 3150 3149 3147 3147 3146
3009 3017 3025 3033 3041 3048 3054 3060 3066 3071 3076 3082 3087 3092 3096 3100 3105 3109 3111 3116 3121 3125 3130 3132 3134 3136 3139 3142 3144 3144 3146 3147 3149 3150 3151 3151 3150 3150 3150 3149 3147 3144 3142 3141 3139 3138 3136
3005 3013 3021 3030 3038 3045 3051 3056 3062 3067 3073 3077 3084 3089 3094 3098 3101 3105 3108 3113 3118 3123 3128 3129 3131 3135 3137 3139 3140 3142 3143 3144 3145 3146 3147 3148 3149 3148 3144 3143 3142 3136 3131 3131 3132 3130 3131
3002 3011 3019 3027 3034 3041 3047 3053 3058 3065 3070 3076 3082 3087 3092 3095 3099 3102 3105 3109 3115 3120 3124 3126 3128 3131 3134 3135 3138 3139 3140 3140 3141 3142 3142 3142 3144 3144 3140 3140 3139 3129 3128 3129 3127 3125 3125
2999 3008 3017 3025 3031 3037 3043 3049 3056 3061 3067 3073 3078 3084 3088 3093 3097 3100 3103 3106 3111 3116 3121 3123 3125 3128 3130 3133 3135 3136 3137 3137 3136 3136 3136 3137 3138 3139 3138 3136 3131 3126 3124 3124 3124 3123 3121
2998 3007 3015 3023 3028 3034 3041 3047 3054 3058 3065 3070 3075 3081 3086 3092 3095 3098 3101 3105 3108 3113 3117 3119 3122 3125 3127 3129 3131 3132 3133 3133 3134 3133 3133 3134 3135 3137 3135 3134 3129 3121 3121 3121 3121 3118 3117
2996 3005 3013 3020 3026 3032 3039 3045 3051 3056 3062 3068 3073 3078 3084 3089 3093 3096 3098 3102 3105 3109 3113 3116 3118 3121 3124 3125 3127 3128 3129 3130 3131 3130 3130 3130 3130 3128 3131 3131 3122 3119 3118 3118 3121 3119 3114
2995 3003 3011 3018 3024 3031 3036 3042 3049 3054 3060 3066 3071 3076 3083 3087 3091 3094 3097 3100 3103 3106 3109 3112 3116 3116 3119 3121 3123 3124 3124 3125 3126 3125 3125 3125 3125 3124 3126 3128 3119 3115 3115 3116 3114 3110 3109
2993 3001 3009 3016 3023 3029 3035 3040 3047 3052 3059 3064 3069 3075 3080 3086 3090 3091 3094 3098 3101 3103 3107 3109 3112 3113 3114 3115 3119 3119 3120 3122 3122 3122 3119 3120 3119 3119 3120 3116 3114 3112 3111 3109 3106 3104 3102
Wind_Speed
22 22 21 20 19 18 17 18 18 16 15 14 11 10 6 3 1 4 8 11 11 10 6 3 1 1 2 6 9 6 4 4 4 5 5 4 2 3 5 7 7 5 8 3 2 5 4
23 24 22 21 21 19 19 20 19 16 14 13 12 10 7 3 3 5 10 10 12 10 7 2 2 2 2 3 6 4 4 3 5 5 3 2 2 3 4 8 9 9 8 5 4 2 5
23 24 24 23 21 21 20 20 19 16 14 13 10 7 5 3 4 5 8 9 12 10 7 6 4 4 3 4 4 3 3 4 5 4 3 2 2 5 7 9 9 9 8 10 9 6 5
24 25 25 24 22 21 21 19 18 15 14 13 11 7 4 4 4 5 7 9 11 9 9 8 5 5 6 6 3 2 2 3 5 5 5 4 5 4 6 10 9 8 4 2 2 1 3
25 26 26 24 23 22 20 19 17 15 14 12 10 8 5 4 4 6 8 8 10 9 9 8 7 4 4 6 5 5 6 7 7 8 8 8 10 9 10 9 11 11 12 10 5 8 7
25 26 26 25 24 24 22 19 17 15 13 13 10 9 7 5 4 5 7 8 10 10 9 7 6 4 5 7 4 4 3 5 6 7 8 10 9 17 19 8 10 12 11 10 9 10 11
25 26 27 26 25 23 20 19 17 16 15 13 10 9 9 6 6 7 8 10 11 11 9 5 4 2 5 6 7 4 3 6 6 10 5 10 10 19 21 19 15 12 11 9 9 11 8
24 27 28 27 25 24 22 21 18 16 14 13 11 9 9 8 8 9 11 11 11 10 9 4 4 3 3 4 6 3 6 6 7 3 6 9 17 19 15 12 10 10 10 11 7 9 6
26 28 29 27 25 24 23 20 18 16 14 13 11 10 10 10 10 10 11 11 11 9 8 7 6 4 2 4 3 4 7 6 5 5 12 12 15 14 9 10 9 11 13 11 9 10 3
27 29 29 27 26 24 21 20 18 16 14 13 12 11 13 13 12 12 12 12 10 9 6 7 6 4 3 4 3 5 4 5 5 8 7 12 13 10 10 11 13 11 10 7 5 6 2
28 29 29 28 26 25 23 21 19 16 14 13 12 12 14 14 13 13 13 13 10 9 3 6 8 7 3 4 5 5 4 8 7 10 9 9 9 9 11 15 14 10 8 5 2 3 3
28 29 29 29 28 26 23 21 19 16 14 14 13 14 15 15 15 14 14 13 13 6 3 8 10 9 5 4 3 3 5 5 7 8 10 10 8 7 16 14 12 12 9 4 4 2 3
30 31 30 29 27 25 24 23 20 16 15 15 14 14 16 16 16 16 16 17 10 4 7 8 10 11 7 4 2 4 3 4 4 3 5 5 7 8 13 12 10 11 8 3 2 3 2
33 33 31 30 29 27 26 24 20 17 16 15 14 16 16 17 17 17 18 19 5 9 12 9 11 13 8 6 3 1 1 1 4 5 4 3 1 5 10 12 9 14 14 5 1 2 5
37 34 32 30 29 28 26 24 21 18 17 16 15 16 17 18 18 19 20 21 7 8 11 13 15 14 10 9 3 2 2 1 1 4 3 2 1 1 8 9 10 5 8 7 4 0 3
41 36 34 31 30 29 27 24 21 19 18 17 16 17 18 19 20 20 22 18 12 9 10 14 14 12 9 9 6 3 2 2 1 1 4 3 1 2 6 5 7 6 6 3 2 1 1
40 37 35 33 31 30 27 24 22 20 19 18 18 19 20 20 21 22 25 21 16 11 11 15 15 11 9 8 9 6 3 4 4 2 4 5 1 3 5 2 0 2 2 2 2 3 1
42 38 36 34 32 30 28 25 22 21 20 20 19 21 22 23 25 26 24 22 18 16 13 15 13 12 9 8 7 7 7 7 3 5 5 2 3 2 5 5 5 4 3 2 2 4 5
42 39 36 34 32 31 29 26 24 22 21 20 21 21 21 24 24 26 24 22 20 17 16 15 14 14 12 9 7 9 8 7 7 6 3 5 2 3 3 4 8 11 10 9 7 7 9
41 38 36 35 33 32 29 27 24 23 22 22 22 21 22 25 26 24 23 22 21 19 18 18 15 14 11 11 13 6 8 7 8 8 8 9 8 8 8 8 12 14 13 13 14 10 10
41 38 37 35 33 31 29 27 25 24 24 24 24 21 23 26 29 22 22 15 20 20 20 19 17 14 11 12 13 14 13 11 11 11 10 10 12 13 14 15 16 19 21 22 25 26 20
41 36 35 33 32 31 30 28 25 25 25 25 26 20 22 17 27 25 22 22 16 19 14 16 17 13 12 12 11 7 9 12 12 10 11 15 12 12 19 20 17 21 24 27 29 30 32
43 35 32 33 32 31 29 27 26 27 26 26 25 23 18 21 18 26 23 19 18 15 15 14 14 11 11 11 12 11 10 10 12 12 13 14 12 12 9 11 13 21 8 14 21 29 30
40 38 35 33 32 30 29 27 27 27 26 25 24 22 17 16 18 20 22 19 14 15 15 13 12 12 11 10 11 10 11 12 15 17 18 17 16 14 11 12 3 7 10 11 14 17 19
41 34 34 32 31 29 28 28 28 27 25 24 24 23 22 16 17 19 18 20 19 16 16 13 10 10 9 9 9 8 8 10 12 16 21 21 20 9 6 6 18 20 7 14 15 19 18
39 35 32 31 30 28 28 27 26 25 24 23 24 23 20 17 16 17 19 16 15 16 16 14 12 11 10 10 8 6 5 4 4 5 8 12 17 16 9 4 5 5 11 13 11 21 9
36 35 33 31 29 28 28 27 24 24 23 24 23 22 20 17 15 17 18 18 18 17 15 13 12 12 11 10 9 8 7 8 5 5 6 11 14 24 23 10 12 12 17 15 8 13 13
38 36 33 28 25 26 25 25 25 24 24 24 22 21 19 18 14 15 16 14 15 16 13 11 13 14 12 11 7 7 8 8 8 11 9 9 8 10 14 9 12 6 11 16 20 23 24
33 32 31 28 28 28 26 25 25 24 24 23 22 20 18 19 13 14 14 16 15 15 13 14 14 7 8 7 9 6 6 7 9 9 15 13 16 9 13 14 19 23 27 27 30 30 30
Wind_Direction
248 241 234 227 221 213 204 201 197 188 183 192 188 185 172 173 171 287 287 288 281 280 267 272 222 92 92 84 100 107 117 109 99 76 65 72 87 128 144 147 143 135 141 171 15 7 346
244 240 232 225 218 211 204 201 198 190 192 199 198 190 192 192 233 271 276 280 273 267 254 239 251 129 121 106 88 98 93 75 67 65 61 73 151 166 170 166 172 173 184 198 227 345 358
243 239 230 222 216 210 205 203 199 194 200 206 203 195 213 226 254 266 270 269 266 259 237 177 185 151 132 103 105 73 30 33 42 51 72 100 154 166 164 162 158 174 181 200 219 255 295
240 235 228 220 215 211 206 204 201 196 204 211 208 202 208 232 255 267 267 264 252 239 215 168 170 133 107 106 108 98 35 21 52 58 57 61 87 107 141 141 144 142 145 122 38 156 261
233 231 225 218 212 210 208 203 202 202 205 211 203 190 189 226 249 268 264 254 237 210 213 166 152 146 121 101 54 19 13 14 20 35 38 60 61 105 99 116 110 93 81 64 56 30 11
229 227 222 215 212 210 204 203 203 206 206 208 200 179 176 192 214 230 243 226 206 194 190 174 163 138 133 105 99 77 29 7 23 30 45 63 88 82 81 97 76 68 61 44 31 26 14
227 224 219 213 208 210 210 204 200 205 204 204 198 177 168 169 180 189 210 195 194 185 178 173 178 225 126 87 70 58 62 49 35 40 62 82 91 60 49 51 55 52 59 50 53 10 22
226 223 217 212 206 207 206 202 202 202 204 204 198 175 157 156 172 183 194 192 195 179 167 159 146 139 110 101 66 79 61 52 47 52 68 86 60 58 49 48 50 58 50 50 31 12 20
226 220 215 211 208 206 205 202 201 199 200 201 194 179 158 158 174 187 195 191 185 174 162 146 154 148 124 108 87 73 71 78 77 77 73 72 76 64 56 47 39 47 34 25 4 11 62
221 218 213 211 207 208 205 200 201 198 201 197 194 183 160 163 181 187 190 188 186 172 162 169 176 158 167 176 115 71 67 66 60 62 74 60 72 48 41 37 38 41 16 360 343 0 27
216 213 210 211 207 205 202 200 200 196 199 199 198 186 167 169 182 187 188 182 183 177 83 187 195 186 161 170 170 64 72 68 67 64 65 93 64 47 24 31 32 17 5 355 36 40 28
212 212 211 210 206 202 201 199 197 197 198 199 197 187 175 176 181 184 184 175 172 174 156 179 185 180 168 142 125 90 61 72 80 68 80 87 57 39 25 18 24 13 360 74 64 64 77
209 210 209 210 208 202 201 196 197 194 200 202 195 192 181 178 182 182 182 173 169 188 184 188 188 182 185 176 138 84 74 60 58 56 71 91 47 33 16 15 22 21 31 81 91 37 27
205 206 208 208 205 201 202 196 193 194 200 201 195 191 186 182 185 180 183 177 182 187 176 172 180 190 191 189 186 180 16 48 54 55 90 66 10 27 10 17 16 31 49 59 39 5 321
200 203 206 206 204 203 201 197 192 195 198 200 193 191 190 186 185 185 185 183 194 192 198 191 179 190 196 206 217 247 275 250 86 46 63 72 134 333 17 30 26 26 66 73 109 197 267
194 200 203 204 203 202 200 199 193 196 196 197 190 190 194 189 185 188 188 197 200 200 193 193 185 188 194 200 199 205 256 217 244 32 20 12 154 238 357 25 37 60 49 56 45 86 308
191 200 200 201 202 201 199 198 196 197 194 197 188 190 193 190 187 192 199 202 206 205 199 191 201 189 197 194 203 209 236 244 266 271 335 338 312 228 324 325 75 76 86 108 117 134 175
190 199 199 198 199 199 199 197 198 198 192 196 192 195 192 190 188 197 202 207 208 213 208 207 208 215 203 204 217 224 227 233 251 278 312 301 316 238 289 285 246 249 217 199 189 200 197
191 197 197 196 197 198 198 198 196 199 193 194 194 200 195 195 197 201 203 205 209 212 212 214 214 215 219 215 212 227 235 242 245 255 258 310 251 287 284 274 255 251 251 230 232 227 214
192 196 195 196 195 197 197 200 198 196 193 192 193 195 197 198 205 206 209 206 206 209 213 215 218 217 216 215 219 233 227 233 236 244 270 289 267 249 248 277 279 268 272 247 242 226 233
191 195 193 194 194 196 197 199 198 197 194 194 194 200 201 205 205 203 200 209 212 210 212 213 220 220 227 222 225 231 241 237 240 252 264 275 276 282 288 289 282 277 265 259 253 257 244
190 195 193 193 194 195 195 197 198 197 197 197 198 200 203 200 203 204 200 206 208 211 215 216 219 218 229 228 230 244 237 237 245 251 258 266 271 285 291 294 285 277 269 258 258 256 257
190 190 190 192 192 194 196 196 197 199 197 199 201 203 201 205 199 203 206 205 206 204 210 207 211 224 222 222 234 245 247 247 254 264 266 264 267 289 281 290 300 288 281 258 264 265 261
190 193 196 192 191 194 196 196 198 200 199 201 200 200 201 200 199 201 201 201 203 207 209 205 207 213 215 220 228 240 252 260 267 269 265 257 268 272 275 285 229 266 302 285 278 276 267
184 189 191 191 191 193 195 196 200 198 198 196 199 201 204 201 193 194 189 196 197 198 203 208 208 205 209 218 236 255 258 261 259 255 254 256 256 253 253 223 284 292 306 272 274 290 276
184 189 188 192 191 192 195 196 199 196 196 195 199 200 203 200 195 191 189 190 199 202 200 213 210 217 222 228 230 226 220 210 235 251 251 244 235 238 241 240 251 274 290 301 297 284 306
184 185 182 185 188 190 194 193 196 195 193 194 196 198 199 200 197 193 195 199 196 201 210 211 214 222 230 236 238 231 225 216 228 232 242 231 236 237 240 253 264 286 276 268 255 298 302
183 181 181 187 188 191 193 192 193 192 192 193 192 194 195 193 193 193 195 201 208 209 213 212 213 227 231 229 229 225 217 219 233 249 257 256 242 233 225 239 271 258 267 264 293 296 292
179 181 185 188 191 191 190 189 190 189 191 190 189 191 190 193 191 190 196 205 210 214 220 220 225 215 209 197 209 206 212 235 248 263 271 253 247 252 255 267 281 288 289 286 285 286 280